Location: York
(31.8935°S, 116.7682°E)
Time: 09:40:46
(UTC+08:00)

A-11 Canister half - Visible Passes

Search period start: 13 June 2021 00:00
Search period end: 23 June 2021 00:00
Orbit: 1513 x 1686 km, 47.2° (Epoch: 12 June)

Date Brightness Start Highest point End Pass type
(mag) Time Alt. Az. Time Alt. Az. Time Alt. Az.
13 Jun 9.4 18:37:13 10° WNW 18:46:32 58° SSW 18:53:24 21° SE visible
13 Jun 10.2 20:44:52 10° WSW 20:51:37 31° SSW 20:51:37 31° SSW visible
14 Jun 9.4 18:14:14 10° WNW 18:23:33 61° SSW 18:31:47 16° SE visible
14 Jun 10.0 20:21:46 10° WSW 20:30:00 33° S 20:30:00 33° S visible
15 Jun 9.3 17:51:15 10° WNW 18:00:35 64° SSW 18:10:10 11° SE visible
15 Jun 9.9 19:58:42 10° WSW 20:07:15 34° S 20:08:22 33° S visible
15 Jun 11.2 22:05:44 10° SW 22:06:33 13° SW 22:06:33 13° SW visible
16 Jun 9.3 17:28:17 10° WNW 17:37:37 68° SSW 17:47:22 10° SE visible
16 Jun 9.9 19:35:38 10° WSW 19:44:11 34° S 19:46:42 31° SSE visible
16 Jun 10.9 21:42:45 10° SW 21:44:54 17° SW 21:44:54 17° SW visible
17 Jun 9.9 19:12:33 10° WSW 19:21:07 35° SSW 19:25:04 27° SSE visible
17 Jun 10.6 21:19:46 10° SW 21:23:16 22° SW 21:23:16 22° SW visible
18 Jun 9.9 18:49:28 10° WSW 18:58:03 36° SSW 19:03:24 22° SE visible
18 Jun 10.4 20:56:47 10° SW 21:01:36 27° SSW 21:01:36 27° SSW visible
19 Jun 9.9 18:26:24 10° W 18:34:59 37° SSW 18:41:45 17° SE visible
19 Jun 10.1 20:33:48 10° SW 20:39:56 31° SSW 20:39:56 31° SSW visible
20 Jun 9.9 18:03:19 10° W 18:11:56 37° SSW 18:20:05 13° SE visible
20 Jun 9.9 20:10:49 10° SW 20:18:17 33° S 20:18:17 33° S visible
20 Jun 11.3 22:16:15 10° SW 22:16:29 11° SW 22:16:29 11° SW visible
21 Jun 9.8 17:40:15 10° W 17:48:54 38° SSW 17:57:52 10° SE visible
21 Jun 9.8 19:47:49 10° SW 19:56:22 34° S 19:56:38 33° SSE visible
21 Jun 11.0 21:53:20 10° SW 21:54:50 16° SW 21:54:50 16° SW visible
22 Jun 9.8 19:24:49 10° SW 19:33:17 33° S 19:35:01 31° SSE visible
22 Jun 10.7 21:30:25 10° SW 21:33:13 22° SW 21:33:13 22° SW visible
